Theta_e
342 342 343 343 342 342 343 343 342 343 341 342 342 341 340 340 340 339 340 339 337 337 335 333 334 337 335 335 336 335 337 339 342 342 342 342 343 341 340 341 341 341 338 337 336 335 334 333 333 333 332 331 332 333 337 337 335 334 333 332 331 330 329 329 329 328 328 327 327 327 326 326 326 325 325 325 325 325 325 325 325 325 326 326 325
342 341 342 341 341 342 341 340 340 341 342 341 342 341 339 339 339 339 337 337 335 336 335 333 332 335 334 334 335 335 337 337 339 340 342 343 344 342 339 341 340 340 341 338 336 335 335 333 332 333 332 332 330 331 332 337 336 335 334 332 331 331 330 330 329 328 328 328 327 326 327 327 325 325 325 325 324 325 325 325 324 324 324 324 324
340 339 342 341 341 340 341 341 340 341 343 343 342 340 341 340 339 338 337 336 335 336 333 333 332 332 334 332 333 335 335 338 338 339 340 342 343 343 341 341 341 340 340 339 339 335 335 333 332 333 333 332 333 332 330 332 336 337 335 333 332 331 330 330 329 328 328 327 327 327 326 326 326 325 324 324 324 324 324 324 324 324 323 323 324
336 338 341 340 340 340 339 340 339 340 342 341 342 341 340 339 339 339 339 338 337 337 334 333 332 332 333 332 333 334 334 337 337 338 338 342 341 343 342 343 341 340 340 339 338 338 335 335 334 332 332 333 332 332 331 330 331 332 336 334 333 331 331 330 329 329 328 327 327 327 326 326 326 325 324 324 324 324 323 323 323 323 323 323 323
336 335 334 334 336 336 335 337 338 339 340 341 341 341 340 339 339 339 338 337 337 333 332 335 334 334 335 333 334 332 334 335 338 339 338 340 341 341 342 342 343 340 338 340 338 338 339 339 335 334 332 331 331 331 332 331 331 330 334 335 334 333 332 331 330 329 328 328 327 327 327 326 325 325 325 324 324 324 323 323 323 323 323 323 323
333 333 332 332 331 332 334 335 336 336 336 338 338 338 338 338 338 337 335 335 334 332 332 333 332 333 334 334 335 337 336 334 337 338 340 339 340 342 340 339 340 342 341 340 339 338 337 337 336 335 334 333 332 332 331 331 331 330 330 337 335 334 332 331 331 330 329 328 328 327 327 326 326 325 325 324 324 323 323 323 323 323 323 323 323
333 333 333 332 332 333 336 336 336 336 336 337 338 338 337 336 336 337 335 335 332 331 332 333 333 332 334 337 333 333 336 336 337 337 337 340 342 341 341 340 340 340 339 340 340 337 336 337 337 339 336 335 334 332 332 331 331 330 330 337 336 335 333 332 331 330 329 329 328 328 327 327 327 326 325 324 324 323 323 323 323 322 322 322 322
333 334 333 333 333 333 337 337 336 336 337 337 337 336 336 336 336 336 332 330 330 331 333 333 334 333 334 336 337 336 335 336 337 336 337 339 338 341 341 341 341 339 340 339 341 340 336 336 336 337 339 336 335 333 333 332 331 331 331 334 335 335 335 333 333 332 331 330 328 328 328 328 327 326 325 325 324 324 323 323 323 322 322 322 322
336 336 336 334 335 336 336 335 336 336 336 336 336 336 336 334 334 335 334 333 330 329 331 333 333 333 334 334 335 335 335 335 336 337 335 338 339 338 340 340 341 338 340 340 341 340 337 336 337 336 337 338 337 335 335 335 333 333 332 332 335 334 334 334 334 333 332 331 330 329 329 328 327 327 325 326 324 324 324 323 323 323 322 322 322
335 335 336 335 335 335 335 335 334 333 334 335 336 335 335 336 333 332 332 332 332 330 330 332 331 331 333 334 334 334 333 334 335 336 337 336 337 337 338 339 340 339 340 340 340 340 340 337 336 336 336 335 335 337 336 337 337 335 334 332 332 333 334 333 333 335 334 332 331 330 329 328 327 327 326 326 325 325 324 324 323 323 323 322 322
334 334 334 335 334 334 335 334 334 333 334 335 334 334 333 334 332 329 331 331 331 331 332 333 333 333 332 333 334 332 333 335 336 335 337 337 337 336 336 338 339 339 339 340 340 340 341 342 340 340 339 334 336 338 337 337 337 337 337 336 335 333 332 333 332 333 335 334 332 331 330 329 327 327 327 326 325 325 325 325 324 324 323 323 322
333 333 334 334 334 334 333 333 333 333 333 333 333 333 332 331 332 330 328 329 328 329 330 333 333 332 332 333 334 334 332 332 334 333 334 336 337 337 336 336 338 339 338 339 339 338 340 341 341 340 340 337 335 336 337 337 337 337 337 337 337 337 335 334 333 333 334 335 335 332 331 330 329 327 327 327 325 326 326 325 325 324 324 323 323
332 332 333 333 332 332 332 333 333 331 331 331 333 332 332 333 332 331 330 328 327 329 329 331 331 328 331 331 332 331 333 334 331 332 332 334 336 336 335 336 336 337 338 338 337 338 338 337 336 335 338 339 339 335 335 334 336 337 337 336 336 336 334 336 335 334 333 335 335 334 332 331 330 328 327 328 327 326 327 326 325 324 324 323 323
332 332 333 333 332 331 332 332 331 330 330 331 331 331 331 332 331 328 330 329 329 331 331 332 326 324 323 324 326 330 332 332 331 331 332 332 334 335 335 334 334 335 336 336 336 335 335 334 335 335 333 334 335 338 338 337 337 335 337 338 336 335 334 335 335 336 335 334 334 335 334 332 331 330 329 328 328 327 327 326 325 325 324 324 324
333 332 332 332 332 332 331 332 332 331 330 331 332 331 330 331 330 330 328 330 329 331 330 331 328 329 329 325 321 320 327 329 332 332 332 333 333 332 331 333 333 333 335 334 333 334 333 334 332 331 332 332 333 334 336 335 337 333 335 335 337 337 335 336 336 335 335 335 333 334 335 334 332 331 330 329 329 328 327 327 326 325 325 324 324
332 332 332 331 332 332 331 331 331 332 331 331 330 330 330 329 330 331 330 328 326 327 330 330 330 328 321 321 321 322 318 323 326 329 331 331 332 331 332 330 332 333 335 332 334 334 334 333 333 333 331 331 333 334 333 334 334 332 332 332 333 336 337 336 336 336 335 335 336 334 335 335 334 332 331 331 330 329 328 327 327 326 325 325 324
332 333 333 331 331 331 331 330 330 331 331 331 330 330 330 331 330 330 330 329 327 327 328 329 326 327 326 321 319 317 319 322 324 326 327 327 329 329 331 330 332 333 334 333 334 333 332 331 332 332 332 332 332 333 335 334 335 337 336 334 334 335 336 336 336 337 336 336 335 336 335 335 335 333 332 331 330 330 329 328 327 327 326 326 326
332 334 333 331 330 329 330 330 330 331 331 331 330 330 330 330 330 331 329 329 329 326 325 328 328 329 328 327 324 319 321 323 323 319 325 324 326 328 329 330 332 331 330 331 333 334 333 333 333 333 334 336 336 335 336 335 335 336 338 336 328 330 330 331 335 336 337 336 336 336 336 335 336 334 334 332 331 331 330 329 328 328 328 327 327
332 334 335 334 332 330 330 331 331 332 331 331 330 329 329 329 330 331 330 329 329 326 325 326 327 327 328 328 326 327 328 325 320 323 319 319 319 321 320 321 325 327 329 330 331 331 332 333 332 332 335 336 336 335 334 336 333 332 328 326 325 321 321 320 326 331 335 336 337 336 336 336 334 334 334 333 332 332 331 330 330 330 329 329 328
331 331 332 333 334 333 333 333 332 332 331 330 328 328 329 328 329 330 330 330 329 328 327 326 323 325 327 327 326 325 327 327 327 324 321 315 313 318 320 320 320 321 325 328 331 332 334 335 333 336 339 336 336 334 333 334 334 334 331 323 322 322 319 317 315 314 321 329 335 335 335 335 335 333 333 332 332 333 332 332 332 331 331 330 330
326 328 329 330 331 332 333 332 332 331 330 329 329 329 329 329 329 329 329 329 330 329 327 325 325 324 324 323 325 324 323 324 325 327 321 316 313 315 315 318 317 316 317 321 325 327 327 328 331 333 333 335 334 335 337 334 333 332 328 321 321 320 319 316 312 312 312 323 329 332 335 336 335 334 330 329 330 331 332 332 332 332 332 332 331
325 325 326 327 328 329 329 330 331 330 328 329 328 329 330 330 330 330 330 329 329 330 327 326 326 326 327 325 322 321 321 320 321 322 322 320 313 312 315 314 310 312 316 316 317 320 321 322 323 323 324 325 326 328 331 332 332 332 326 320 321 320 319 314 309 312 315 319 325 330 332 332 332 332 333 332 333 332 331 331 333 334 334 333 332
325 325 325 325 327 327 328 328 329 328 326 326 328 327 328 328 327 328 328 329 328 327 326 327 325 324 325 325 325 323 322 319 318 317 316 314 312 311 313 312 310 310 314 314 314 314 314 316 315 315 317 317 318 320 323 323 322 319 315 316 316 317 317 313 309 309 311 318 321 328 331 331 332 332 333 333 333 333 333 333 335 335 334 334 333
324 324 324 324 326 326 326 326 325 326 325 326 326 326 325 324 324 324 323 323 325 326 326 324 323 323 324 324 322 322 320 318 318 320 317 316 315 312 311 311 310 310 313 314 314 314 313 312 313 314 314 315 316 317 318 317 316 317 315 313 313 311 313 314 311 309 307 310 316 322 328 332 332 332 332 333 334 334 334 334 333 333 333 333 333
321 322 321 323 324 325 326 325 324 325 324 323 323 323 323 322 323 322 323 323 323 323 320 321 322 319 318 320 318 318 317 319 319 319 322 320 317 312 312 314 310 309 311 313 311 312 312 311 312 312 313 314 315 317 317 317 315 315 314 312 311 311 309 310 311 309 308 306 309 313 317 321 327 328 329 328 328 329 329 328 321 317 320 322 325
321 321 321 322 322 322 323 323 322 322 322 323 322 322 323 320 322 322 321 321 322 322 320 321 321 321 321 317 318 316 317 319 318 318 318 319 316 314 312 313 312 309 310 311 312 309 309 310 311 312 312 314 315 316 317 314 316 314 314 313 311 309 308 308 308 306 305 304 305 308 310 312 316 318 319 318 318 316 316 313 313 314 312 313 314
320 322 322 322 322 323 323 323 322 322 322 322 321 321 321 321 320 321 320 320 320 320 319 320 319 319 320 318 317 317 317 316 316 316 315 317 317 316 313 309 309 310 308 309 309 309 307 308 310 310 311 314 315 315 314 314 312 313 315 316 313 307 307 307 307 307 305 304 303 303 305 307 308 309 310 312 311 311 313 313 313 310 310 310 312
322 323 322 323 322 322 322 322 322 322 321 320 320 320 321 321 319 320 318 318 320 319 318 318 319 319 318 319 316 314 317 315 315 316 315 316 317 318 317 313 309 306 309 308 308 306 309 307 307 308 309 311 312 313 312 310 311 312 313 315 314 311 306 305 305 304 304 304 303 303 303 304 305 306 308 309 311 310 311 311 310 309 308 311 313
322 324 323 323 323 323 322 322 323 323 322 321 320 320 320 320 319 318 318 318 319 317 319 318 318 318 317 319 316 315 315 317 317 317 318 318 316 316 315 314 312 308 306 306 307 306 305 307 304 304 306 308 310 311 311 310 309 311 312 313 313 311 307 305 303 303 303 302 301 301 301 303 304 306 308 307 308 308 308 308 308 308 309 310 310
323 323 324 323 324 322 323 322 323 323 322 321 320 320 320 319 319 318 317 319 318 318 318 317 318 318 317 316 316 315 318 318 316 319 319 318 316 315 314 315 316 310 309 306 305 309 307 306 306 303 303 304 306 308 309 307 308 309 310 309 310 310 306 305 304 302 302 301 300 300 299 301 302 304 307 305 305 306 305 306 307 307 308 308 308
322 323 322 322 322 321 323 322 322 322 321 321 321 320 320 318 319 317 317 319 316 316 317 318 317 317 316 315 316 315 318 318 318 317 318 318 316 314 313 313 314 316 313 309 304 306 311 305 304 304 303 304 305 307 307 307 307 308 310 309 307 308 308 306 304 303 302 301 300 300 301 302 301 302 302 304 305 305 304 305 306 307 307 306 305
323 324 322 321 321 320 321 321 321 321 320 320 320 321 321 319 318 317 317 318 315 315 315 316 314 316 315 314 315 314 316 315 315 316 314 316 317 313 313 312 311 314 313 310 308 305 308 304 303 303 304 305 305 305 306 306 306 307 308 309 309 308 308 309 304 303 302 301 300 300 301 301 300 300 301 301 300 303 301 301 304 305 304 303 303
322 322 321 320 319 320 319 319 319 320 320 320 320 321 320 320 319 318 316 316 314 315 315 315 315 315 313 313 313 314 316 315 314 313 312 312 313 313 312 309 309 312 312 310 307 305 306 305 304 302 304 306 302 305 304 306 307 307 307 309 309 308 308 309 309 303 302 301 300 299 299 299 298 299 298 297 299 300 300 300 301 301 301 300 301
322 321 321 321 321 319 319 318 319 318 318 318 318 319 318 319 320 319 318 315 315 315 316 313 315 314 315 312 311 314 314 312 314 310 310 310 309 307 307 306 305 307 311 307 306 305 303 304 302 303 303 306 302 304 305 306 306 306 304 305 305 305 306 307 308 308 301 301 299 299 300 299 299 299 298 298 298 298 299 299 298 298 299 298 299
321 322 321 322 321 320 319 320 319 319 318 318 319 318 318 317 317 318 319 317 316 315 315 314 313 314 314 314 313 314 315 314 314 313 313 310 309 306 307 305 304 305 304 305 304 302 302 300 304 301 303 304 303 302 303 304 305 304 303 304 304 304 304 305 305 306 301 301 299 300 299 299 299 298 297 298 298 297 298 298 298 298 298 299 298
321 322 323 322 321 321 321 320 320 320 320 320 319 319 318 318 317 316 317 317 316 317 315 314 314 315 315 314 314 314 314 313 312 312 312 312 310 306 305 305 305 303 305 306 305 303 302 301 302 301 302 304 302 303 303 304 303 303 304 304 304 304 304 304 304 304 303 302 300 300 300 300 298 298 297 297 298 298 297 297 298 298 298 299 299
323 322 322 321 322 321 322 321 320 320 320 320 319 320 321 320 317 316 316 316 316 316 316 317 316 316 315 315 314 313 313 312 313 311 311 310 307 306 304 303 302 303 304 304 303 303 304 303 302 303 304 302 302 304 303 303 303 304 304 303 303 303 305 305 304 303 302 300 300 300 299 298 298 298 298 298 298 297 297 297 298 298 299 299 299
322 322 321 322 322 321 320 320 321 321 321 321 320 320 320 319 319 318 317 316 317 317 317 317 316 317 316 315 315 314 313 313 313 313 311 310 307 306 304 302 301 304 304 304 305 305 303 303 304 303 304 303 303 303 303 304 303 303 304 304 305 304 305 304 304 303 305 304 306 304 301 299 299 298 298 298 297 297 297 298 298 299 299 299 298
323 322 320 319 320 320 321 322 321 320 320 320 321 321 320 319 318 317 317 317 316 315 315 317 318 318 316 316 316 315 313 314 314 313 312 310 308 306 306 305 302 304 304 303 303 304 304 303 303 304 303 303 304 302 302 303 303 302 302 302 303 303 304 303 303 303 305 305 303 298 298 298 298 300 299 297 297 298 298 298 299 299 299 298 297
322 322 321 320 321 321 321 322 322 321 320 321 322 322 321 321 320 319 319 319 318 317 316 316 317 318 317 317 317 316 313 315 315 314 312 310 309 306 306 305 305 304 303 303 304 303 304 304 303 303 302 302 303 304 303 304 303 303 302 301 300 301 302 303 303 301 302 302 302 302 300 299 299 299 298 298 299 298 298 299 300 300 300 298 296
323 323 322 322 321 320 321 322 321 322 322 322 323 323 323 321 320 320 320 319 318 317 317 317 317 317 317 317 317 316 315 313 308 309 309 308 308 304 304 305 305 305 304 304 304 303 304 304 304 304 303 303 302 302 302 301 300 299 302 302 301 302 301 301 302 303 301 300 300 299 300 301 300 301 302 303 303 301 302 299 301 300 299 296 296
323 323 323 323 323 322 320 321 321 320 320 322 317 308 310 320 320 319 319 319 319 318 318 319 319 318 318 318 318 313 309 308 304 300 299 299 303 306 305 305 304 304 304 304 303 303 304 304 303 303 303 302 301 302 302 302 302 303 302 301 299 299 300 300 301 303 301 300 298 298 299 302 300 300 302 302 303 303 304 305 303 299 298 296 296
321 320 322 321 321 321 320 320 320 321 322 321 306 301 299 301 316 321 320 320 319 319 319 319 319 320 320 318 318 314 310 307 306 297 296 295 296 297 298 300 303 306 305 303 302 302 302 303 303 303 302 302 302 302 302 301 303 301 300 300 299 298 297 295 294 299 303 300 298 297 299 302 301 299 300 301 302 303 303 303 297 297 296 296 296
321 321 320 320 320 321 321 321 321 322 322 309 301 299 298 295 301 319 321 321 320 319 320 319 319 319 319 319 317 317 315 314 313 308 299 294 293 293 293 293 292 292 296 304 303 301 301 302 303 303 302 302 302 302 302 302 301 300 301 300 299 297 296 295 295 295 300 301 297 297 298 302 301 299 300 300 301 302 302 299 297 296 296 296 296
320 318 320 320 320 320 320 320 320 321 322 301 294 295 296 295 294 304 321 322 321 321 320 320 320 319 319 318 318 316 314 309 310 310 306 301 294 293 293 293 292 291 289 290 293 304 304 302 302 302 302 302 302 302 302 301 301 299 299 297 298 297 297 295 296 296 298 300 297 296 295 299 301 299 299 301 302 302 301 298 297 296 296 296 296
315 315 314 316 317 318 318 319 319 319 320 297 295 294 294 292 292 296 321 323 323 322 321 320 320 320 319 319 318 317 315 313 313 309 306 304 301 301 302 304 301 297 293 291 291 292 299 302 302 302 304 303 301 302 302 300 298 297 296 296 297 296 296 296 297 297 299 299 297 296 294 297 300 298 298 300 301 301 302 299 295 296 296 296 295
315 314 314 316 315 315 314 314 316 315 313 292 293 292 292 292 291 295 317 318 319 320 319 318 317 317 318 318 318 317 315 314 312 307 306 304 304 304 303 301 300 300 301 302 303 304 303 304 304 304 303 303 302 301 301 300 300 299 298 297 297 297 297 298 298 299 299 300 299 296 292 295 299 297 298 299 299 299 301 298 297 296 296 295 295
313 313 313 315 314 313 311 312 314 313 309 291 291 292 292 291 292 310 313 314 317 316 314 312 312 313 314 315 316 315 313 312 300 295 300 305 305 303 301 300 300 300 299 294 292 294 300 303 303 302 302 301 295 300 298 298 299 300 298 298 299 298 297 295 294 297 296 300 299 296 294 295 298 296 296 298 299 298 300 301 297 297 296 295 295
312 312 312 311 310 309 307 308 313 313 310 296 290 291 292 291 299 316 316 315 313 311 310 309 310 311 312 312 312 312 310 309 296 292 294 298 305 303 303 302 301 301 299 297 292 291 290 290 289 289 289 289 290 290 290 289 294 297 297 296 295 297 294 292 294 294 295 297 298 298 296 294 297 296 295 297 297 296 298 300 301 297 296 296 295
310 311 309 307 307 309 311 313 313 315 311 297 291 292 291 291 304 317 315 313 311 309 307 307 308 308 305 302 306 310 308 305 291 292 292 302 306 305 304 301 298 296 295 295 295 294 290 290 289 288 289 289 289 288 289 290 290 293 296 293 295 295 293 293 291 293 294 296 296 298 294 293 296 296 294 295 296 297 298 299 300 300 297 296 295
310 309 308 309 308 307 307 307 300 310 311 301 291 291 291 292 305 316 313 312 309 308 306 304 305 305 303 299 296 301 303 297 290 291 293 302 307 305 303 301 299 297 295 295 296 296 297 297 298 298 295 293 296 299 298 290 290 291 297 296 296 294 292 292 292 292 291 294 297 298 292 293 294 294 294 292 291 295 298 298 299 299 299 299 299
Wind_Speed
4 4 3 4 5 5 5 4 4 4 4 3 3 4 3 3 2 1 0 1 0 0 0 1 0 1 2 2 1 1 1 2 2 3 3 2 3 6 7 6 3 3 4 4 5 5 6 6 6 6 6 5 4 6 9 9 8 7 8 8 8 8 7 7 6 6 6 6 7 7 6 7 7 7 7 8 8 8 9 9 8 9 11 12 11
2 2 3 4 5 4 4 4 5 5 5 5 4 4 3 3 3 2 1 1 0 0 1 0 1 2 3 3 3 2 1 2 2 3 3 2 2 4 6 6 4 4 2 3 4 5 5 4 5 7 6 6 4 3 5 8 8 8 7 7 7 8 8 7 7 7 7 6 6 6 7 6 6 6 6 7 7 7 8 9 9 8 8 8 9
1 2 2 3 2 2 2 3 4 4 4 4 4 4 3 3 3 2 2 1 1 1 0 1 0 2 3 4 3 2 1 1 2 3 2 2 2 2 6 8 7 6 4 2 1 3 4 4 4 5 7 7 7 5 4 5 6 8 8 8 7 7 8 8 7 7 6 6 6 6 6 6 6 6 6 6 6 6 7 8 8 8 8 8 8
3 4 3 2 3 3 3 4 3 3 3 3 3 3 3 3 2 2 1 2 1 1 0 0 1 1 3 3 3 3 2 2 2 2 2 2 2 3 3 5 8 7 6 4 3 2 4 4 5 5 5 7 6 7 5 5 3 5 8 8 8 7 7 8 8 7 7 7 6 6 6 6 6 5 6 6 6 5 6 8 8 8 8 8 8
3 1 1 1 2 1 2 3 2 2 2 2 3 3 3 3 2 2 2 2 1 2 0 0 1 1 0 1 1 2 1 2 2 2 2 2 2 3 3 4 5 8 6 5 6 4 2 2 4 5 4 4 6 6 6 6 6 5 7 11 9 9 8 8 8 8 8 7 7 6 6 6 6 6 6 6 6 6 6 5 6 7 7 8 8
3 2 2 1 2 4 4 4 3 2 2 2 3 2 2 2 2 2 2 2 2 1 1 1 1 2 1 0 1 1 1 2 1 1 2 2 2 3 3 3 4 4 6 8 7 7 4 2 2 5 5 5 6 5 6 6 6 4 5 9 9 8 8 8 8 8 9 8 7 7 7 6 6 6 6 5 6 6 6 5 5 7 7 7 7
2 4 3 2 3 4 5 4 2 2 2 2 2 2 2 2 2 2 2 1 2 1 1 1 1 1 1 0 1 1 1 1 1 2 2 1 1 2 2 3 3 3 4 4 8 7 5 4 2 2 7 6 5 5 6 6 6 6 6 9 10 10 9 8 8 7 8 8 8 8 7 7 7 7 7 6 5 6 6 6 5 5 6 7 7
5 5 5 3 2 5 4 2 3 3 3 3 3 3 3 3 3 2 2 3 3 3 1 1 0 1 1 0 0 1 1 2 2 2 1 1 2 1 2 3 3 3 3 3 3 6 6 5 4 3 6 8 6 5 7 8 7 8 8 8 9 8 8 9 9 8 8 8 8 9 8 8 7 7 7 7 6 6 6 6 6 5 5 6 6
4 3 2 2 4 3 2 2 2 2 3 3 3 2 3 4 4 3 1 1 1 1 1 1 1 1 1 1 1 1 1 2 1 1 0 1 2 2 3 3 3 2 3 3 3 3 7 4 5 4 4 7 8 7 8 9 9 8 10 9 9 8 8 8 9 9 9 8 9 8 8 8 8 8 8 8 7 6 6 6 7 6 6 6 6
2 2 1 1 2 2 1 2 3 3 3 3 2 1 4 4 4 3 2 1 1 1 0 1 1 1 2 2 2 1 2 1 1 0 1 2 2 2 2 2 3 3 2 2 2 2 2 6 5 4 5 6 7 8 8 8 9 10 10 10 8 9 10 7 7 9 9 10 9 9 9 8 8 8 8 8 8 7 7 7 7 7 7 6 6
1 1 2 2 3 2 1 2 2 2 2 3 2 3 2 2 4 5 4 4 5 4 2 2 2 2 2 2 1 3 2 2 1 1 0 1 1 1 1 2 2 1 1 2 2 2 3 2 3 4 5 7 6 7 8 7 7 8 9 11 11 9 8 8 7 9 10 10 10 11 10 9 9 9 8 8 8 8 8 8 8 8 8 8 7
1 1 1 1 2 1 0 2 3 2 2 2 2 2 2 4 4 7 6 3 4 2 3 2 2 2 1 1 1 1 1 1 2 3 2 2 1 1 0 1 0 0 1 1 2 3 3 2 2 2 2 5 5 6 7 7 5 6 8 8 10 10 9 8 8 9 10 11 12 12 11 10 10 10 9 9 9 9 9 9 8 8 8 8 7
2 2 1 1 1 1 1 2 2 1 0 1 1 1 1 3 5 4 4 4 2 3 3 3 4 3 2 1 1 1 1 2 1 1 2 2 2 2 2 3 3 3 3 2 1 2 2 3 2 3 4 3 3 6 6 6 8 7 9 9 8 7 6 9 9 9 11 12 13 13 12 12 11 10 10 10 10 9 9 9 9 8 8 8 8
3 2 1 2 1 1 1 2 2 2 1 0 2 2 2 3 5 4 3 5 4 4 3 4 4 3 3 3 3 2 2 2 2 1 2 1 1 1 2 3 4 4 4 4 3 2 2 3 3 2 2 4 6 4 3 7 9 9 8 8 7 6 8 10 9 9 8 10 11 12 11 12 11 11 11 10 10 10 10 9 9 9 8 8 8
3 3 2 1 1 1 2 2 2 2 1 1 3 4 3 4 5 4 4 2 2 2 3 2 2 2 0 2 3 4 4 4 3 1 1 2 2 2 2 2 4 4 4 3 3 3 3 3 2 3 1 5 4 6 5 5 4 1 4 6 7 5 7 9 10 8 9 10 10 11 10 11 10 11 11 11 11 10 10 10 10 10 9 9 9
3 4 3 2 1 2 2 2 3 1 1 1 2 4 4 3 3 2 3 3 3 3 1 1 2 3 4 3 0 2 3 4 2 2 1 2 2 2 2 2 2 3 3 2 2 3 4 4 2 3 4 5 2 4 4 3 3 5 7 6 5 6 6 9 9 8 9 9 11 11 9 12 13 13 12 12 11 11 11 10 11 11 11 10 10
3 3 3 3 2 2 2 2 2 2 1 1 1 2 3 3 2 2 3 2 3 2 2 2 1 3 2 2 3 4 2 2 2 2 4 2 4 3 2 2 2 3 3 2 1 3 3 2 1 2 1 2 1 6 3 3 4 4 4 7 6 5 6 8 8 11 11 10 10 11 9 13 15 15 14 13 12 12 12 12 11 11 12 12 12
1 3 4 4 4 3 2 2 2 2 2 1 1 2 3 4 3 2 2 2 2 3 3 4 3 2 0 2 3 2 2 2 3 2 5 7 5 6 6 4 4 3 1 1 2 1 2 2 1 2 2 2 3 2 3 4 5 3 2 5 2 3 5 5 7 8 9 10 11 12 13 14 16 14 13 13 12 12 12 12 12 12 13 13 12
2 2 3 3 3 3 3 3 3 3 2 2 2 1 2 2 2 3 3 2 2 3 3 4 3 2 2 2 2 2 2 2 1 3 3 5 5 6 7 7 6 6 3 2 1 1 1 1 1 1 1 2 3 4 4 2 0 4 10 7 5 7 6 5 6 7 7 7 9 12 13 13 12 13 12 13 13 12 12 12 13 13 13 14 13
3 3 2 2 2 3 3 3 3 3 2 3 3 2 2 2 1 1 2 2 3 2 3 3 4 4 2 2 3 2 2 2 1 1 2 4 4 5 7 7 8 8 7 5 3 2 4 4 4 4 4 5 4 4 4 5 5 6 6 8 8 8 7 6 6 6 6 8 8 9 12 12 14 12 11 10 10 12 12 14 15 15 14 14 14
3 3 3 3 2 2 2 3 2 3 2 3 3 3 3 3 3 3 3 3 0 1 2 3 2 3 4 3 3 3 4 2 2 1 3 6 5 4 5 6 9 8 7 7 7 8 7 6 7 7 7 6 5 4 5 5 6 6 8 7 9 8 8 8 10 11 10 8 8 8 8 10 13 12 7 8 13 12 13 13 14 14 14 14 15
4 4 3 3 3 3 2 3 3 2 2 3 3 3 2 3 3 2 2 2 2 2 4 4 3 3 4 5 4 4 4 1 3 2 3 2 6 6 4 5 8 7 6 7 8 8 8 7 8 8 8 7 7 7 7 7 7 7 7 9 11 11 10 10 11 10 9 8 8 7 3 2 3 10 10 16 16 15 15 17 19 18 18 19 17
3 4 4 3 3 3 3 3 3 2 2 2 2 3 3 2 2 3 2 2 2 4 4 4 4 5 5 5 3 2 2 3 4 3 3 5 7 7 6 7 9 8 7 8 8 9 9 8 8 8 7 8 7 7 8 9 11 11 15 13 13 11 11 11 11 11 10 9 10 9 5 4 2 2 9 12 15 15 16 16 19 19 19 19 17
3 4 4 4 3 3 3 3 3 2 3 2 2 3 2 2 2 2 3 3 3 4 4 5 4 4 4 3 3 4 4 4 3 3 5 6 7 8 7 7 8 8 6 8 10 10 10 9 9 9 8 8 8 7 8 8 9 12 13 16 14 15 12 12 12 12 13 11 11 12 12 10 6 3 3 5 9 13 15 15 14 15 17 16 14
3 4 4 4 3 3 3 3 3 4 3 3 3 3 2 2 3 4 4 4 3 4 5 4 4 5 5 3 3 3 4 2 1 2 3 5 7 8 6 5 7 6 5 5 7 8 8 9 8 8 8 8 7 7 8 8 8 9 12 14 17 14 15 14 13 12 13 14 14 14 14 13 12 12 12 10 9 10 9 8 6 5 3 4 7
3 3 3 3 4 4 4 4 5 4 4 4 4 4 3 2 3 4 4 3 3 5 5 5 5 5 4 5 4 4 3 2 2 2 3 5 6 7 8 6 6 6 5 5 4 5 8 8 8 8 8 8 7 7 7 8 8 9 11 12 15 15 15 16 16 15 14 14 14 14 14 15 15 16 15 14 12 10 10 9 8 7 6 6 8
3 3 3 4 4 4 4 4 4 4 4 4 3 4 4 3 4 4 4 3 4 4 4 4 4 4 5 5 5 4 4 3 3 3 2 1 3 7 8 9 6 5 6 5 7 8 6 7 7 8 8 7 7 8 8 8 9 9 9 10 11 16 15 16 15 14 14 14 14 14 15 15 16 15 15 14 14 13 12 11 9 8 8 7 7
4 4 4 4 4 4 4 4 4 4 4 4 4 3 4 4 4 4 4 3 3 5 4 5 6 6 5 4 5 5 4 4 4 4 4 3 3 4 5 6 8 7 5 5 5 6 6 5 8 9 7 7 6 6 8 9 8 7 11 9 9 10 13 13 13 13 13 14 14 13 13 13 14 14 15 15 15 14 14 13 12 11 10 9 9
4 4 5 4 4 4 4 4 3 4 4 4 4 4 3 4 4 4 4 3 4 4 3 5 4 4 4 4 5 5 4 4 4 4 4 3 3 2 2 4 4 6 6 6 5 4 6 6 4 7 7 6 6 6 7 8 9 7 8 7 8 9 10 13 13 14 14 14 13 12 12 12 12 13 12 12 13 14 13 13 13 12 10 12 11
5 4 4 4 4 4 4 4 3 3 4 4 4 4 4 4 4 4 3 2 4 3 3 4 3 3 3 4 4 5 2 3 3 2 3 3 4 4 3 2 1 3 4 6 5 3 4 5 5 5 6 6 5 5 6 7 10 8 8 8 7 7 11 14 13 13 13 14 13 13 12 12 12 12 12 13 13 13 13 13 13 13 13 12 12
6 5 5 4 4 3 3 3 3 4 4 4 4 4 3 4 3 3 3 2 4 4 3 2 2 3 4 4 3 3 2 3 3 3 2 3 4 4 5 5 4 3 4 6 6 3 2 4 4 4 5 6 5 5 5 6 7 7 7 6 7 4 6 13 14 13 13 13 13 13 13 13 12 12 12 11 12 12 11 11 11 10 10 11 8
4 5 5 5 4 4 3 3 3 3 4 4 3 3 3 3 3 3 3 2 4 4 3 2 2 3 4 4 3 3 2 3 4 3 4 3 3 4 4 5 5 4 3 3 6 6 3 3 4 4 4 5 5 5 5 4 4 6 6 6 6 3 5 6 13 12 12 12 13 13 13 12 11 12 11 10 11 11 11 11 10 10 9 10 10
5 5 5 5 4 4 4 3 3 3 3 3 2 2 2 2 2 2 2 2 3 3 2 3 2 2 3 4 3 2 1 4 4 4 4 4 4 4 4 4 4 4 4 5 6 7 4 3 3 3 3 2 5 5 5 5 4 4 5 6 6 6 5 4 6 12 10 11 11 12 12 12 12 12 11 11 10 10 11 11 10 9 9 8 8
4 5 6 5 4 4 4 4 4 4 4 4 3 2 1 2 2 2 1 1 1 2 2 3 3 1 2 3 4 3 1 3 2 4 4 4 4 5 4 4 5 4 2 4 5 5 5 3 3 2 3 2 4 4 4 4 4 4 6 5 5 6 6 5 4 6 8 8 9 10 10 11 11 11 11 10 10 9 10 11 11 11 10 9 8
5 4 5 5 5 4 4 4 4 4 4 5 3 3 2 1 1 1 0 1 2 2 3 4 3 3 3 3 4 3 3 3 2 2 2 2 3 5 5 4 5 4 4 4 5 5 5 4 1 3 2 3 4 4 4 3 3 3 4 5 5 5 5 5 5 3 8 5 6 7 7 8 9 9 10 10 10 9 9 9 10 10 11 10 9
6 5 6 6 6 4 3 3 3 4 4 4 4 3 3 2 1 1 2 2 3 4 4 4 4 4 4 4 4 4 4 4 3 3 2 2 3 4 5 4 4 4 3 2 3 4 4 4 2 2 2 2 3 3 1 2 3 3 3 2 3 4 5 5 4 4 5 2 2 4 4 4 5 7 8 9 9 9 9 9 9 9 9 9 9
5 6 4 5 5 5 4 4 3 4 4 4 3 3 2 3 3 2 3 3 3 4 6 6 5 5 5 5 5 5 5 5 4 4 4 4 3 4 4 4 4 4 3 2 3 3 4 4 4 2 1 2 2 3 4 3 2 2 2 2 3 4 5 4 3 3 2 6 5 1 3 5 3 6 6 8 8 8 8 8 9 9 8 8 8
6 5 7 5 5 5 4 4 3 3 3 2 2 2 1 2 3 2 3 4 4 4 5 7 9 7 6 6 6 6 6 6 5 4 4 5 4 3 4 4 4 4 5 4 3 4 4 4 3 3 2 2 2 3 4 3 4 4 5 3 1 3 5 5 4 3 3 3 4 5 3 5 7 7 5 7 8 8 7 8 8 7 7 8 8
5 5 4 5 6 6 6 5 5 5 4 2 2 3 3 4 3 4 6 5 5 5 6 7 9 9 6 6 5 5 5 5 5 6 5 5 3 4 3 4 4 4 4 4 4 4 4 3 3 2 2 2 3 3 4 3 2 4 6 6 5 4 5 6 6 4 2 4 3 6 5 6 8 8 7 8 8 7 7 8 8 5 6 7 8
5 5 6 6 4 4 4 5 3 3 3 3 4 4 3 4 4 6 6 6 6 6 7 8 10 10 9 7 5 5 5 3 3 4 5 5 4 4 3 2 3 4 4 4 4 3 3 2 1 2 1 1 1 1 1 3 4 3 5 6 8 7 7 6 4 4 4 5 6 6 4 5 6 5 9 10 9 4 8 8 6 4 3 7 8
5 6 6 5 5 5 3 3 3 3 2 3 3 3 3 4 5 5 5 5 5 6 7 8 9 9 7 6 6 8 8 9 10 8 9 5 5 5 4 4 4 4 4 3 3 2 2 1 2 1 1 1 2 3 3 4 5 5 5 4 6 6 7 7 5 1 3 5 7 7 6 5 7 6 5 5 3 7 4 5 4 2 8 9 9
4 3 5 4 4 4 3 3 3 3 3 3 4 3 3 2 2 3 3 5 6 6 7 7 7 6 6 6 5 9 10 11 11 11 11 11 9 7 8 6 5 4 3 3 2 1 1 0 2 2 2 2 2 3 3 2 2 2 4 5 7 7 7 7 4 1 2 6 8 7 6 3 5 6 5 5 4 4 5 4 5 8 9 9 9
5 5 4 4 5 4 5 5 5 4 4 3 5 6 8 7 4 4 4 5 5 6 6 6 6 5 5 5 4 5 7 9 9 10 8 11 9 6 8 6 3 4 5 4 3 1 0 1 1 1 2 2 1 1 1 2 1 3 4 4 5 6 7 8 9 4 3 7 8 8 8 3 3 6 5 4 4 4 5 4 8 10 9 9 9
6 5 6 6 5 3 3 4 5 4 2 3 4 4 4 5 5 4 4 4 4 5 5 5 5 4 3 2 2 3 4 6 6 7 6 6 7 9 9 7 6 6 5 3 3 2 1 1 1 1 2 2 2 1 2 2 3 4 3 4 4 5 7 7 7 7 5 6 8 8 8 4 3 5 5 4 4 4 5 8 10 8 9 8 9
5 7 7 5 4 4 4 5 3 2 2 4 3 2 2 3 4 5 4 4 4 4 4 4 4 3 3 2 2 3 2 7 6 6 7 5 5 9 10 9 7 6 7 9 8 2 0 0 1 2 1 2 3 1 2 2 2 5 5 5 5 5 5 6 7 8 8 6 7 8 9 8 4 5 7 5 4 4 6 6 6 10 10 9 9
4 3 2 3 5 5 4 4 3 2 2 4 3 4 3 3 3 5 4 2 2 2 2 2 3 3 3 3 3 2 2 4 5 6 7 7 7 7 6 5 4 5 8 8 7 7 4 1 1 2 1 1 3 2 1 1 3 5 5 6 6 6 6 7 9 10 8 5 5 6 9 7 5 6 7 7 5 6 6 6 8 12 10 8 9
4 4 5 6 4 4 4 3 2 2 1 3 3 4 5 5 6 3 1 1 1 1 1 2 2 2 3 2 2 2 2 3 4 6 9 8 7 6 6 4 4 4 4 3 2 1 0 0 1 1 1 0 1 1 1 2 2 3 4 6 7 7 8 9 9 8 6 4 4 4 9 8 6 6 7 7 8 8 7 7 8 10 9 8 8
3 4 3 4 4 4 3 3 3 3 1 3 2 2 5 7 7 4 3 2 2 1 1 2 2 2 1 1 1 1 1 2 6 7 7 8 8 7 6 5 4 4 5 5 7 7 6 3 3 3 2 4 5 3 3 3 3 3 4 5 6 6 7 8 8 6 6 2 3 6 8 7 5 7 8 7 8 9 8 7 9 6 5 5 7
4 3 3 3 3 3 3 2 2 3 3 0 3 3 6 9 7 3 4 3 3 3 3 2 3 3 3 2 1 1 2 3 7 8 9 8 7 7 6 5 4 4 4 3 6 7 7 7 7 6 5 3 1 2 2 2 3 5 5 6 6 6 7 9 8 7 7 5 6 6 7 8 6 7 9 8 8 10 9 7 6 4 2 7 8
4 3 3 3 2 1 2 2 1 3 4 3 2 4 7 10 6 5 4 4 4 3 3 3 3 4 7 10 4 3 4 5 8 9 8 6 6 6 6 6 5 3 3 2 1 2 3 4 4 2 1 0 1 3 5 4 4 5 4 7 7 7 8 8 9 8 8 8 5 4 8 8 7 7 9 9 9 8 7 6 6 5 7 9 9
5 5 4 4 3 2 2 3 3 1 3 4 4 5 7 8 5 4 4 4 4 4 4 4 4 5 6 9 11 8 7 8 9 8 3 1 4 4 5 5 4 4 3 3 3 3 2 3 4 4 5 6 5 3 3 8 6 7 6 7 7 7 8 8 9 9 9 5 1 4 9 9 9 8 8 10 9 7 5 5 6 7 8 9 10
Wind_Direction
179 168 171 172 172 173 161 165 168 164 159 163 174 159 161 167 164 160 97 38 83 170 354 71 143 180 192 173 202 181 182 205 198 200 211 205 195 140 168 162 184 231 196 198 178 178 198 176 165 159 163 189 162 158 161 157 159 157 153 150 146 140 136 135 127 120 119 111 109 114 113 110 106 102 105 106 108 102 97 102 100 101 92 83 80
160 160 179 182 181 168 173 167 171 171 178 174 174 179 166 167 166 168 166 171 215 105 301 60 151 165 188 188 185 209 188 208 189 205 207 206 177 135 157 161 176 197 224 207 197 187 198 186 178 166 171 176 174 175 179 168 166 169 163 154 152 147 143 139 134 130 129 122 123 118 111 105 109 106 105 109 111 110 100 98 104 97 90 90 97
69 199 220 189 178 175 197 187 180 183 195 180 184 182 174 179 172 174 183 195 181 185 296 19 7 168 173 195 186 196 191 199 198 193 212 199 188 170 157 165 173 183 183 200 266 218 195 180 184 200 171 178 183 196 202 183 185 180 167 159 158 157 150 145 143 141 134 134 134 125 121 123 116 119 115 115 116 115 116 110 103 103 102 101 102
237 227 213 184 195 181 196 202 184 183 195 189 180 189 189 177 165 152 167 195 187 167 59 332 71 132 178 187 186 197 194 176 198 186 203 207 198 179 181 169 170 181 176 177 183 234 231 178 175 207 193 182 194 195 188 207 201 177 166 159 167 167 162 154 151 150 147 146 145 136 133 132 129 127 122 119 121 121 115 120 122 120 110 104 101
233 277 349 260 43 265 202 230 221 207 182 194 181 188 197 184 173 182 176 183 190 142 152 82 115 108 246 165 208 217 190 192 186 192 199 204 203 190 193 186 178 168 177 180 188 205 197 330 180 185 209 209 209 206 190 206 207 207 183 171 174 176 176 165 159 157 158 156 152 148 151 145 142 142 141 138 132 133 129 117 122 113 105 110 113
312 287 277 164 159 234 231 209 209 196 179 193 197 198 204 209 206 208 169 191 170 153 195 161 137 154 148 217 219 241 234 208 178 189 206 215 203 203 193 196 191 187 184 183 194 194 194 149 203 187 181 196 212 215 201 200 210 197 214 168 178 183 179 176 170 167 164 163 160 160 158 153 156 154 147 149 140 134 136 134 126 126 128 123 108
212 278 242 191 176 232 222 213 198 180 177 183 202 178 179 193 202 212 160 159 174 141 208 147 166 147 118 230 228 192 195 207 211 216 205 205 222 203 204 213 198 197 195 196 175 190 188 176 166 180 181 195 207 205 210 212 206 194 219 173 184 186 179 183 182 179 174 170 169 170 170 167 166 160 159 159 151 149 151 146 139 130 127 126 125
203 209 228 177 194 220 216 195 149 145 153 166 199 194 172 178 187 196 181 172 179 160 189 182 163 101 103 240 7 299 236 196 198 212 188 223 217 204 221 229 221 210 204 208 198 174 167 178 181 154 190 188 198 201 201 207 208 191 212 191 192 188 185 190 186 186 187 183 183 179 180 177 176 173 170 169 165 169 160 157 150 143 134 135 142
188 183 207 164 202 215 195 155 143 150 163 183 201 173 177 188 181 166 177 158 218 170 156 176 148 122 101 48 32 353 352 12 359 329 137 219 223 210 219 233 225 229 226 229 211 203 160 179 179 174 179 191 189 208 208 211 204 202 207 212 194 201 196 208 193 196 190 196 194 193 189 187 183 183 178 175 175 176 172 167 165 161 158 158 151
159 168 182 242 252 240 157 144 141 149 193 210 193 141 212 198 156 103 58 117 83 26 29 247 178 131 99 71 46 34 40 41 55 271 247 214 214 235 237 247 249 243 248 245 246 220 208 162 176 185 187 198 198 200 214 219 227 213 207 218 215 203 191 197 208 206 208 198 200 201 200 197 194 196 187 182 183 185 183 180 174 173 170 172 165
216 247 252 244 244 242 205 132 134 155 188 194 159 167 142 98 114 121 103 127 166 171 183 195 164 152 135 94 69 60 42 50 60 87 320 308 294 257 242 237 261 250 265 272 253 264 249 261 212 216 190 186 205 212 221 230 227 232 234 218 211 210 210 205 214 201 208 209 206 203 204 201 200 205 198 193 193 194 194 191 185 185 180 179 179
113 134 225 253 268 285 58 143 147 162 193 197 174 163 153 132 118 124 145 155 79 147 173 158 121 145 111 82 69 47 79 48 67 73 53 28 30 45 45 92 205 158 213 235 256 259 274 271 283 271 283 165 195 220 226 244 253 243 242 236 235 222 203 212 218 208 207 205 207 207 204 203 204 206 205 203 202 203 202 200 198 196 189 189 188
117 137 147 309 317 353 42 82 65 72 10 259 236 88 99 147 121 146 167 120 167 153 167 193 165 161 167 184 137 29 324 313 227 156 120 87 64 56 60 64 57 58 39 11 304 315 345 19 7 316 299 302 196 202 248 262 260 254 247 249 258 278 257 220 227 211 210 208 209 209 203 203 203 206 210 209 209 210 210 208 207 205 200 197 198
113 110 95 30 26 34 56 77 106 98 88 68 106 124 139 144 148 156 205 190 166 182 172 191 187 208 197 198 205 188 204 226 230 202 350 35 45 41 53 46 56 64 56 45 29 32 77 57 349 105 97 314 319 307 222 218 225 246 274 278 272 248 259 278 265 276 257 222 223 219 206 207 203 205 214 215 215 215 216 216 212 209 207 205 206
123 131 129 111 69 53 77 86 89 113 160 156 137 129 128 145 166 167 177 154 162 181 173 248 225 175 255 237 219 229 185 212 199 169 7 2 353 355 357 65 43 50 71 68 54 55 53 91 30 343 22 91 349 315 304 306 302 354 271 285 294 284 247 248 253 262 281 279 245 237 207 215 208 208 215 219 219 218 218 218 215 212 213 209 211
127 135 133 131 119 59 67 108 124 119 76 149 111 124 136 140 171 202 222 196 172 171 147 90 324 193 203 239 55 269 229 192 204 101 15 299 323 332 346 14 28 47 57 65 63 52 74 77 94 13 37 64 55 293 281 313 22 246 248 270 264 271 260 254 259 243 236 257 262 246 199 206 212 213 212 217 221 222 223 221 219 214 217 216 214
144 141 125 120 111 85 65 76 99 109 144 130 125 94 103 116 151 183 216 240 178 158 137 83 356 306 274 178 191 219 243 73 194 108 24 22 15 330 8 331 5 14 18 52 55 62 47 75 115 95 87 60 169 243 259 41 273 272 211 194 241 267 276 274 254 251 250 235 242 250 245 210 213 217 218 216 216 218 219 220 220 218 217 222 220
119 126 114 124 124 123 112 108 109 115 105 75 87 129 142 168 160 184 169 184 196 180 154 135 129 120 7 358 348 336 315 144 227 157 81 49 31 39 32 17 15 359 0 71 60 70 154 153 180 95 87 167 256 315 48 46 309 304 336 70 64 330 328 326 306 283 272 256 238 234 240 237 213 217 218 223 219 214 215 218 221 223 223 223 224
76 73 103 115 116 115 116 108 100 106 104 111 104 100 97 80 120 168 152 144 223 214 195 153 149 163 168 87 48 36 17 188 194 123 151 62 37 33 40 39 33 27 2 358 7 358 10 32 163 137 93 64 39 29 60 120 39 86 44 42 48 46 30 11 342 318 305 285 257 243 238 238 245 233 219 222 228 225 217 217 224 228 230 230 230
72 75 70 77 84 108 117 121 119 101 99 90 97 109 124 125 131 137 140 151 159 162 150 164 211 157 165 96 75 43 42 63 352 216 130 140 107 91 69 54 53 45 38 34 35 33 21 29 44 59 59 56 52 54 48 52 58 64 64 42 54 58 62 47 31 9 349 335 313 282 263 241 228 230 238 249 242 224 224 223 220 224 229 233 232
57 73 71 70 72 77 80 89 82 80 85 100 107 106 109 131 141 138 134 135 159 132 153 135 186 156 170 121 130 93 61 20 42 185 147 136 108 103 98 85 65 48 48 53 57 56 51 43 46 42 43 43 40 50 60 69 73 71 64 58 49 48 49 44 40 30 21 17 11 352 323 285 248 237 194 215 235 244 241 241 241 234 231 236 235
72 64 72 76 79 83 79 77 80 75 51 69 89 94 96 103 104 107 125 124 123 100 86 112 125 136 176 148 147 130 102 93 82 140 133 127 136 125 104 93 71 51 48 52 64 70 68 61 63 59 54 49 43 39 45 48 52 58 58 57 52 48 46 47 45 33 18 21 35 44 354 272 286 271 223 221 222 222 225 228 236 234 233 228 224
84 74 59 66 78 81 84 81 70 64 72 78 71 74 76 75 81 81 73 78 100 113 116 106 111 122 135 153 157 154 160 137 142 156 145 129 119 113 104 92 92 79 59 66 70 72 72 68 66 58 53 52 47 46 48 50 52 56 51 44 39 35 36 42 48 34 14 17 33 24 349 325 26 225 261 235 236 239 234 230 233 241 242 246 241
82 85 65 50 57 64 76 83 78 70 67 49 58 81 81 89 88 82 79 70 86 97 103 111 112 113 118 120 113 117 119 125 124 156 154 140 131 125 121 116 100 94 85 74 68 69 62 60 60 60 56 55 55 54 52 57 49 40 56 41 41 41 32 26 36 38 24 16 21 19 6 11 29 2 326 265 250 244 244 244 248 250 253 258 262
90 89 68 50 56 64 55 68 67 46 36 37 54 52 78 85 85 82 81 82 83 97 103 97 97 102 102 85 91 91 89 73 118 150 140 144 138 131 121 118 114 111 105 98 87 69 60 60 58 53 55 56 54 48 51 52 51 32 62 51 40 40 41 43 44 44 40 35 30 27 21 19 22 24 25 32 13 358 353 1 352 335 288 262 265
109 86 72 66 62 52 51 61 60 58 45 39 36 31 23 69 82 81 78 71 80 86 93 91 83 88 103 106 91 89 81 72 88 113 136 159 155 141 132 116 118 116 104 95 88 93 68 56 54 57 55 50 49 51 54 58 59 39 61 62 45 37 42 45 47 46 43 44 43 38 32 28 30 32 32 27 25 16 7 15 9 357 336 314 293
116 106 99 86 79 72 64 65 65 64 59 53 46 43 27 42 62 63 63 56 68 78 82 88 90 87 84 91 97 89 79 74 67 68 81 101 145 145 144 133 120 111 111 99 87 64 83 66 47 56 54 48 49 49 52 64 59 35 59 67 62 46 45 50 51 50 49 49 48 48 46 41 39 37 36 33 30 24 16 14 8 360 345 331 317
124 121 108 108 104 100 96 91 94 90 85 79 70 63 44 54 64 62 65 31 70 78 85 86 85 82 81 82 91 84 75 77 76 67 61 62 110 156 166 151 142 133 129 110 92 75 38 75 71 48 50 52 48 54 63 60 49 39 59 64 61 58 49 55 56 57 55 51 50 49 48 46 44 44 44 40 37 32 28 22 16 8 357 345 336
132 127 123 122 126 129 126 126 120 115 107 100 94 84 78 74 76 75 72 55 66 67 67 91 95 101 97 83 93 97 87 78 79 78 73 61 65 78 216 190 170 148 150 123 97 97 58 28 62 54 41 48 43 44 52 50 19 15 64 66 65 61 46 53 50 51 50 50 50 49 45 42 40 39 39 39 38 36 32 30 26 22 16 9 2
135 132 129 129 126 135 136 133 125 114 106 104 97 97 96 86 85 84 78 84 95 85 70 83 82 88 100 104 105 108 95 89 80 54 69 68 65 62 56 31 283 185 144 134 107 65 88 64 43 53 42 45 50 48 49 55 20 30 50 62 61 60 64 51 51 49 48 45 45 44 42 38 35 31 29 31 30 27 27 25 21 19 19 24 22
139 141 140 135 129 121 126 129 123 112 105 99 104 98 98 101 94 96 102 114 105 105 94 87 83 101 101 94 90 98 95 95 88 80 67 70 76 75 66 60 56 61 117 127 127 79 23 80 68 52 51 47 51 60 60 53 27 30 56 53 55 21 65 60 47 46 45 45 42 40 38 36 32 25 23 22 19 20 13 14 17 16 16 19 16
138 139 139 139 140 139 127 125 127 122 118 112 108 106 101 98 111 110 109 123 115 116 123 126 128 123 113 102 83 89 102 117 105 87 79 57 43 64 63 66 62 51 87 108 109 115 67 65 84 78 57 54 38 58 66 62 63 29 57 56 47 11 48 74 62 41 43 41 40 36 33 31 26 25 19 17 17 14 12 9 7 13 16 15 15
145 149 141 137 136 131 128 112 102 104 105 109 107 118 123 119 111 96 115 141 135 128 130 131 137 134 119 110 104 88 62 115 118 120 109 105 97 82 77 79 75 53 64 101 114 118 107 61 67 70 41 11 57 38 56 55 44 56 56 50 40 38 37 39 72 56 36 39 37 34 31 26 22 20 17 15 13 10 8 4 2 2 6 6 9
158 151 142 134 138 134 123 121 117 109 103 97 92 72 78 129 135 136 146 156 188 153 174 158 143 131 135 129 123 120 71 103 121 127 123 126 115 107 96 89 89 85 37 89 99 120 123 135 103 97 75 13 81 52 57 42 44 30 47 47 47 39 34 21 35 70 46 36 33 35 27 21 17 11 8 7 4 4 3 359 356 354 355 356 360
154 157 145 142 140 144 143 145 140 127 119 110 107 111 101 72 38 50 89 256 237 220 215 203 185 167 169 153 145 141 145 135 116 98 112 114 104 102 103 96 96 96 98 102 120 116 129 117 140 114 91 69 50 60 64 63 43 32 45 41 35 35 30 21 21 51 73 22 38 31 21 19 13 2 356 353 351 352 354 355 353 350 347 351 355
154 158 153 146 141 145 150 154 152 140 128 126 127 131 147 139 98 359 345 304 277 263 251 237 217 201 196 175 164 164 161 152 150 146 142 124 117 113 113 106 105 98 93 107 107 124 141 138 125 97 102 108 106 71 73 89 49 45 37 51 45 40 24 20 18 7 74 34 36 29 8 356 10 356 343 339 339 338 339 343 347 345 344 346 347
165 143 139 140 146 154 161 165 142 128 138 142 149 162 169 135 137 175 261 270 269 286 289 284 256 229 210 211 180 179 177 167 164 168 159 157 139 134 127 122 119 116 106 93 99 116 129 121 121 98 92 97 80 64 34 14 44 49 49 24 27 23 24 16 2 10 166 202 210 350 340 298 359 342 321 326 323 325 324 329 334 336 339 341 340
164 163 153 155 155 158 159 176 167 151 149 151 162 174 180 157 160 159 219 222 243 253 263 274 266 242 232 220 194 189 193 189 180 168 165 162 152 149 142 138 129 129 119 111 107 98 97 98 111 125 89 48 84 61 36 25 15 11 9 10 355 18 7 3 2 2 349 353 341 346 309 310 346 317 316 317 309 304 309 314 319 322 330 334 336
175 170 159 162 170 173 181 172 179 171 163 181 208 184 181 187 195 209 229 223 215 205 224 239 262 267 247 219 205 198 218 213 187 174 169 164 170 158 143 140 137 135 131 125 120 115 108 115 102 66 108 88 30 34 41 5 25 24 10 353 351 5 1 352 345 353 345 330 297 211 257 288 289 290 316 290 288 285 294 302 301 307 318 333 337
189 188 180 182 169 180 180 186 175 160 166 201 221 211 208 209 210 216 225 231 234 224 213 228 234 233 227 220 197 202 222 243 220 193 174 175 168 152 141 153 148 146 132 133 133 131 133 124 92 116 86 86 113 83 31 12 12 19 22 353 340 340 342 337 327 334 351 337 332 331 297 268 291 265 240 236 221 267 281 284 306 304 338 346 338
190 194 191 185 165 172 176 189 181 177 202 225 231 216 214 212 219 231 235 244 247 252 249 239 228 228 227 214 192 183 190 203 214 194 193 169 164 158 159 180 173 153 149 148 137 130 136 140 130 137 156 88 49 18 15 19 14 358 343 338 324 329 325 323 329 39 1 338 331 324 321 334 326 328 327 329 353 328 299 277 279 7 2 337 332
183 199 197 190 184 175 183 201 201 167 199 216 202 186 225 232 217 236 245 249 248 248 250 250 244 238 233 227 213 188 186 200 211 206 191 175 184 172 171 180 171 166 157 137 115 81 13 19 49 14 353 21 35 20 5 27 4 331 330 335 330 331 325 322 316 136 11 347 335 324 319 322 323 318 322 324 341 313 324 309 6 341 326 320 319
185 200 209 195 207 200 196 198 199 202 206 203 156 188 194 204 224 226 233 239 240 245 245 248 257 253 240 224 224 176 183 182 193 206 198 181 181 159 148 185 169 167 158 137 129 158 333 4 66 2 5 348 43 354 350 351 335 333 328 324 322 330 335 335 329 338 118 2 335 318 317 330 315 318 317 315 321 318 318 327 343 313 312 314 312
196 189 196 205 209 201 201 208 213 215 216 114 176 191 198 190 205 234 234 237 232 240 246 250 257 264 265 240 199 207 209 196 179 175 175 186 167 155 141 110 83 47 30 91 148 167 198 281 325 25 327 328 331 295 1 340 342 322 315 312 318 329 325 320 313 311 338 1 327 315 308 317 298 306 301 296 300 305 311 300 288 292 303 305 303
185 198 202 199 196 199 209 214 219 211 240 111 154 160 209 224 211 223 232 221 227 228 235 248 266 276 280 264 215 216 172 151 172 162 161 140 115 125 119 105 80 81 73 55 43 33 138 280 314 295 303 329 299 16 35 351 323 308 316 315 325 315 306 299 302 309 312 336 311 310 310 314 306 308 305 298 291 296 290 260 294 301 298 296 292
193 169 181 218 209 196 194 202 195 154 167 99 127 137 152 177 179 214 244 243 258 288 308 316 307 308 305 298 284 235 176 175 183 166 163 143 142 140 138 129 101 69 62 62 64 47 27 5 281 295 64 297 317 359 48 356 320 322 320 313 318 307 300 295 298 288 289 280 290 309 299 301 316 310 301 306 308 296 285 289 281 281 284 284 284
197 174 179 184 171 152 146 150 135 129 98 81 150 150 146 149 139 181 209 278 320 320 335 332 324 314 300 298 282 271 196 188 172 163 162 153 144 132 122 108 96 71 66 59 46 45 74 248 312 0 48 262 331 346 333 320 305 310 312 304 301 294 288 281 269 256 263 241 244 290 292 301 302 295 297 307 309 300 296 289 252 258 273 278 275
129 125 106 86 87 77 63 79 100 106 83 7 322 182 149 127 135 148 155 187 190 131 95 50 30 25 2 323 288 266 187 168 124 146 148 143 143 136 122 114 102 87 71 50 35 28 25 32 46 40 34 44 16 351 355 336 313 299 285 274 272 269 282 296 298 300 291 271 244 293 291 296 305 298 302 305 301 297 301 295 294 259 273 279 273
96 89 78 71 68 83 91 95 120 120 124 192 277 216 157 148 157 158 158 160 125 103 71 60 58 45 37 38 51 75 122 113 116 128 131 147 142 140 138 133 130 134 112 79 42 33 33 52 57 54 46 55 309 318 315 318 313 320 299 292 293 311 303 298 298 300 299 311 297 290 289 293 303 310 306 305 303 301 295 288 290 152 184 257 260
128 117 116 103 91 100 138 123 69 113 120 125 201 175 168 178 199 153 155 138 115 103 95 64 66 63 47 27 22 97 104 102 117 125 148 167 147 146 144 136 135 132 131 115 119 81 63 64 53 6 307 124 290 264 263 259 228 245 279 290 307 304 290 289 293 302 302 296 287 313 296 290 305 303 304 303 299 285 284 293 290 273 222 239 255
134 142 154 137 132 113 66 64 31 44 113 127 134 156 164 185 202 150 152 141 130 120 115 96 78 81 74 52 39 54 78 91 95 98 99 165 136 137 139 149 156 159 139 158 163 167 164 189 197 190 192 196 212 233 187 187 214 226 243 270 287 284 288 292 295 299 296 290 6 322 296 301 309 306 310 309 301 298 282 280 288 298 300 297 293